Torna al catalogo

THOR ABLESTAR DEB

AttivoLEO
NORAD 3932·DEBRIS·🇺🇸 United States

Lanciato Jun 29, 1961 da Cape Canaveral Space Force Station

Loading…

Prossimi Passaggi (prossime 24 ore)

TLE

AggiornatoSource: Space-Track

Epoca: Sep 14, 2026, 07:41 UTC

1 03932U 61015JG  26257.32016528  .00000210  00000-0  52107-3 0  9990
2 03932  65.7974 225.2408 0273309  74.4658 356.9741 13.26049185163620

Traccia THOR ABLESTAR DEB in tempo reale con AllMySat

Download on the App Store